LAN186 SCEL-SCAR

Flight info

Callsign LAN186
Flight time 2h 18m
Altitude 36000
Route TENUT UQ802 GAXIR DCT REPUK
Aircraft A321/M-SDE3FGHIRWY/LB1

Departure

Time 2026-04-25 20:08
Airport Comodoro Arturo Merino Benítez International Airport (SCEL)

Arrival

Time 2026-04-25 22:26
Airport Chacalluta International Airport (SCAR)
Time Latitude Longitude Altitude Speed Heading
2026-04-25 19:14 -33.39602 -70.79452 1560 ft 0 kts 177°
2026-04-25 19:25 -33.39601 -70.79452 1560 ft 0 kts 177°
2026-04-25 19:49 -33.39579 -70.79453 1560 ft 4 kts 181°
2026-04-25 19:50 -33.39526 -70.79441 1559 ft 4 kts 213°
2026-04-25 19:50 -33.39512 -70.79423 1559 ft 2 kts 266°
2026-04-25 19:50 -33.39512 -70.79422 1559 ft 0 kts 267°
2026-04-25 19:54 -33.39512 -70.79431 1559 ft 3 kts 267°
2026-04-25 19:54 -33.39513 -70.79454 1559 ft 2 kts 266°
2026-04-25 19:54 -33.39514 -70.79465 1559 ft 1 kts 268°
2026-04-25 19:54 -33.39514 -70.79468 1559 ft 3 kts 268°
2026-04-25 19:55 -33.39516 -70.79518 1560 ft 2 kts 267°
2026-04-25 19:55 -33.39517 -70.79538 1560 ft 4 kts 267°
2026-04-25 19:55 -33.39520 -70.79603 1560 ft 11 kts 267°
2026-04-25 19:55 -33.39523 -70.79691 1560 ft 10 kts 268°
2026-04-25 19:56 -33.39526 -70.79764 1560 ft 8 kts 267°
2026-04-25 19:56 -33.39528 -70.79833 1560 ft 8 kts 268°
2026-04-25 19:56 -33.39530 -70.79893 1560 ft 6 kts 268°
2026-04-25 19:56 -33.39532 -70.79949 1560 ft 8 kts 265°
2026-04-25 19:57 -33.39528 -70.80020 1560 ft 8 kts 298°
2026-04-25 19:57 -33.39483 -70.80046 1559 ft 7 kts 352°
2026-04-25 19:57 -33.39468 -70.80047 1559 ft 6 kts 355°
2026-04-25 19:57 -33.39433 -70.80049 1559 ft 5 kts 358°
2026-04-25 19:58 -33.39402 -70.80051 1559 ft 4 kts 358°
2026-04-25 19:58 -33.39393 -70.80051 1559 ft 0 kts 358°
2026-04-25 19:59 -33.39387 -70.80052 1559 ft 9 kts 358°
2026-04-25 19:59 -33.39324 -70.80055 1559 ft 16 kts 357°
2026-04-25 19:59 -33.39181 -70.80063 1559 ft 14 kts 357°
2026-04-25 20:00 -33.39118 -70.80066 1559 ft 14 kts 357°
2026-04-25 20:00 -33.39050 -70.80070 1561 ft 15 kts 357°
2026-04-25 20:00 -33.38925 -70.80076 1559 ft 12 kts 357°
2026-04-25 20:00 -33.38846 -70.80080 1559 ft 11 kts 357°
2026-04-25 20:01 -33.38687 -70.80089 1558 ft 14 kts 357°
2026-04-25 20:01 -33.38597 -70.80094 1558 ft 12 kts 357°
2026-04-25 20:01 -33.38519 -70.80098 1558 ft 11 kts 357°
2026-04-25 20:02 -33.38444 -70.80102 1558 ft 13 kts 357°
2026-04-25 20:02 -33.38353 -70.80107 1557 ft 12 kts 357°
2026-04-25 20:02 -33.38271 -70.80111 1557 ft 11 kts 357°
2026-04-25 20:02 -33.38170 -70.80117 1557 ft 19 kts 357°
2026-04-25 20:03 -33.38002 -70.80125 1556 ft 29 kts 357°
2026-04-25 20:03 -33.37803 -70.80136 1556 ft 28 kts 357°
2026-04-25 20:03 -33.37614 -70.80146 1556 ft 26 kts 357°
2026-04-25 20:03 -33.37437 -70.80156 1555 ft 25 kts 357°
2026-04-25 20:04 -33.37276 -70.80164 1555 ft 21 kts 358°
2026-04-25 20:04 -33.37169 -70.80172 1555 ft 10 kts 350°
2026-04-25 20:04 -33.37119 -70.80213 1555 ft 8 kts 306°
2026-04-25 20:04 -33.37109 -70.80238 1555 ft 0 kts 289°
2026-04-25 20:05 -33.37108 -70.80243 1555 ft 3 kts 289°
2026-04-25 20:06 -33.37104 -70.80280 1555 ft 7 kts 269°
2026-04-25 20:06 -33.37127 -70.80345 1555 ft 11 kts 228°
2026-04-25 20:06 -33.37198 -70.80372 1555 ft 11 kts 177°
2026-04-25 20:06 -33.37302 -70.80366 1555 ft 30 kts 178°
2026-04-25 20:07 -33.37740 -70.80343 1555 ft 93 kts 178°
2026-04-25 20:07 -33.38574 -70.80299 1559 ft 141 kts 177°
2026-04-25 20:07 -33.39701 -70.80240 1595 ft 175 kts 177°
2026-04-25 20:07 -33.40926 -70.80163 2155 ft 176 kts 176°
2026-04-25 20:08 -33.42172 -70.80087 2810 ft 175 kts 178°
2026-04-25 20:08 -33.43421 -70.80013 3035 ft 190 kts 178°
2026-04-25 20:08 -33.44799 -70.79933 3174 ft 207 kts 178°
2026-04-25 20:08 -33.46318 -70.79844 3284 ft 232 kts 178°
2026-04-25 20:09 -33.48011 -70.79748 3654 ft 251 kts 178°
2026-04-25 20:09 -33.49750 -70.79720 4353 ft 255 kts 187°
2026-04-25 20:09 -33.51362 -70.80598 5041 ft 263 kts 222°
2026-04-25 20:09 -33.52283 -70.82488 5753 ft 271 kts 257°
2026-04-25 20:10 -33.52197 -70.84748 6489 ft 277 kts 283°
2026-04-25 20:10 -33.51514 -70.86924 7219 ft 281 kts 294°
2026-04-25 20:10 -33.50651 -70.89031 7932 ft 283 kts 295°
2026-04-25 20:10 -33.49779 -70.91158 8638 ft 285 kts 293°
2026-04-25 20:11 -33.48952 -70.93339 8953 ft 288 kts 291°
2026-04-25 20:11 -33.48155 -70.95550 8998 ft 289 kts 296°
2026-04-25 20:11 -33.47012 -70.97526 9008 ft 291 kts 311°
2026-04-25 20:11 -33.45425 -70.99070 9180 ft 297 kts 329°
2026-04-25 20:12 -33.43525 -71.00037 9946 ft 299 kts 340°
2026-04-25 20:12 -33.41508 -71.00843 10306 ft 316 kts 340°
2026-04-25 20:12 -33.39359 -71.01697 10582 ft 331 kts 340°
2026-04-25 20:12 -33.38647 -71.01978 10741 ft 334 kts 340°
2026-04-25 20:13 -33.34904 -71.03445 11802 ft 340 kts 340°
2026-04-25 20:13 -33.32643 -71.04328 12473 ft 343 kts 340°
2026-04-25 20:13 -33.30370 -71.05218 13168 ft 345 kts 340°
2026-04-25 20:13 -33.28075 -71.06116 13850 ft 348 kts 339°
2026-04-25 20:14 -33.25762 -71.07021 14426 ft 352 kts 339°
2026-04-25 20:14 -33.23453 -71.07925 14949 ft 357 kts 339°
2026-04-25 20:14 -33.21078 -71.08853 15474 ft 361 kts 339°
2026-04-25 20:14 -33.18675 -71.09790 15987 ft 365 kts 339°
2026-04-25 20:15 -33.16251 -71.10734 16524 ft 369 kts 338°
2026-04-25 20:15 -33.13796 -71.11691 17081 ft 372 kts 338°
2026-04-25 20:15 -33.11327 -71.12650 17690 ft 375 kts 338°
2026-04-25 20:15 -33.08830 -71.13620 18193 ft 379 kts 337°
2026-04-25 20:16 -33.06336 -71.14591 18569 ft 384 kts 337°
2026-04-25 20:16 -33.03792 -71.15582 18982 ft 386 kts 337°
2026-04-25 20:16 -33.01231 -71.16578 19441 ft 388 kts 337°
2026-04-25 20:16 -32.98660 -71.17575 19964 ft 390 kts 336°
2026-04-25 20:17 -32.96059 -71.18528 20463 ft 393 kts 341°
2026-04-25 20:17 -32.93316 -71.19020 20950 ft 402 kts 352°
2026-04-25 20:17 -32.90495 -71.19092 21415 ft 406 kts 354°
2026-04-25 20:17 -32.87657 -71.19145 21875 ft 409 kts 353°
2026-04-25 20:18 -32.84802 -71.19200 22333 ft 412 kts 353°
2026-04-25 20:18 -32.81922 -71.19255 22792 ft 415 kts 353°
2026-04-25 20:18 -32.79064 -71.19311 23221 ft 417 kts 353°
2026-04-25 20:18 -32.76151 -71.19369 23642 ft 420 kts 352°
2026-04-25 20:19 -32.73188 -71.19427 24017 ft 422 kts 352°
2026-04-25 20:19 -32.70244 -71.19482 24390 ft 424 kts 352°
2026-04-25 20:19 -32.67289 -71.19532 24766 ft 425 kts 352°
2026-04-25 20:19 -32.64313 -71.19582 25145 ft 427 kts 352°
2026-04-25 20:20 -32.61336 -71.19634 25437 ft 429 kts 352°
2026-04-25 20:20 -32.58347 -71.19688 25770 ft 431 kts 351°
2026-04-25 20:20 -32.55339 -71.19743 26156 ft 432 kts 351°
2026-04-25 20:20 -32.52330 -71.19799 26564 ft 433 kts 351°
2026-04-25 20:21 -32.49315 -71.19853 26933 ft 434 kts 351°
2026-04-25 20:21 -32.46276 -71.19910 27295 ft 436 kts 351°
2026-04-25 20:21 -32.43244 -71.19968 27655 ft 437 kts 350°
2026-04-25 20:21 -32.40192 -71.20027 28016 ft 439 kts 350°
2026-04-25 20:22 -32.37131 -71.20087 28344 ft 439 kts 351°
2026-04-25 20:22 -32.36109 -71.20105 28429 ft 438 kts 351°
2026-04-25 20:22 -32.31044 -71.20189 28820 ft 442 kts 350°
2026-04-25 20:22 -32.27923 -71.20239 29109 ft 444 kts 350°
2026-04-25 20:23 -32.24830 -71.20291 29371 ft 445 kts 349°
2026-04-25 20:23 -32.21725 -71.20348 29721 ft 446 kts 349°
2026-04-25 20:23 -32.18621 -71.20409 30058 ft 447 kts 349°
2026-04-25 20:23 -32.15500 -71.20470 30355 ft 449 kts 349°
2026-04-25 20:24 -32.12376 -71.20531 30640 ft 450 kts 349°
2026-04-25 20:24 -32.09236 -71.20591 30918 ft 452 kts 349°
2026-04-25 20:24 -32.06085 -71.20648 31186 ft 453 kts 349°
2026-04-25 20:24 -32.02928 -71.20705 31466 ft 454 kts 348°
2026-04-25 20:25 -31.99781 -71.20759 31726 ft 447 kts 348°
2026-04-25 20:25 -31.96730 -71.20795 31821 ft 428 kts 348°
2026-04-25 20:25 -31.93824 -71.20817 31925 ft 408 kts 347°
2026-04-25 20:25 -31.91058 -71.20840 32040 ft 388 kts 347°
2026-04-25 20:26 -31.88425 -71.20871 32157 ft 369 kts 346°
2026-04-25 20:26 -31.85926 -71.20909 32265 ft 349 kts 345°
2026-04-25 20:26 -31.83562 -71.20946 32371 ft 329 kts 344°
2026-04-25 20:26 -31.81288 -71.21000 31792 ft 331 kts 343°
2026-04-25 20:27 -31.78880 -71.21143 29813 ft 368 kts 343°
2026-04-25 20:27 -31.76157 -71.21269 28743 ft 391 kts 350°
2026-04-25 20:27 -31.73499 -71.21140 28917 ft 374 kts 352°
2026-04-25 20:27 -31.70964 -71.20900 29042 ft 356 kts 353°
2026-04-25 20:28 -31.68534 -71.20643 29150 ft 349 kts 352°
2026-04-25 20:28 -31.66099 -71.20426 29286 ft 354 kts 351°
2026-04-25 20:28 -31.63627 -71.20248 29433 ft 360 kts 351°
2026-04-25 20:28 -31.61096 -71.20093 29562 ft 366 kts 351°
2026-04-25 20:29 -31.58527 -71.19948 29714 ft 372 kts 351°
2026-04-25 20:29 -31.55926 -71.19803 29851 ft 377 kts 351°
2026-04-25 20:29 -31.53288 -71.19652 29994 ft 383 kts 351°
2026-04-25 20:29 -31.50600 -71.19496 30126 ft 390 kts 351°
2026-04-25 20:30 -31.47858 -71.19335 30249 ft 397 kts 351°
2026-04-25 20:30 -31.45082 -71.19169 30335 ft 402 kts 352°
2026-04-25 20:30 -31.40375 -71.18884 30522 ft 412 kts 352°
2026-04-25 20:31 -31.37491 -71.18710 30646 ft 418 kts 352°
2026-04-25 20:31 -31.33609 -71.18474 30804 ft 426 kts 352°
2026-04-25 20:31 -31.28590 -71.18162 30993 ft 435 kts 353°
2026-04-25 20:32 -31.25585 -71.17978 31113 ft 440 kts 353°
2026-04-25 20:32 -31.22507 -71.17793 31235 ft 445 kts 353°
2026-04-25 20:32 -31.16264 -71.17416 31564 ft 450 kts 353°
2026-04-25 20:33 -31.13141 -71.17221 31870 ft 450 kts 353°
2026-04-25 20:33 -31.10019 -71.17027 32218 ft 448 kts 352°
2026-04-25 20:33 -31.06914 -71.16838 32541 ft 446 kts 352°
2026-04-25 20:33 -31.04860 -71.16714 32757 ft 445 kts 352°
2026-04-25 20:34 -31.00730 -71.16464 33182 ft 444 kts 352°
2026-04-25 20:34 -30.97652 -71.16277 33551 ft 442 kts 352°
2026-04-25 20:34 -30.94581 -71.16091 33811 ft 441 kts 351°
2026-04-25 20:34 -30.91521 -71.15906 34088 ft 439 kts 350°
2026-04-25 20:35 -30.88477 -71.15724 34364 ft 437 kts 350°
2026-04-25 20:35 -30.85442 -71.15542 34651 ft 436 kts 349°
2026-04-25 20:35 -30.82413 -71.15359 34899 ft 435 kts 349°
2026-04-25 20:35 -30.79391 -71.15176 35083 ft 435 kts 349°
2026-04-25 20:36 -30.76372 -71.14991 35328 ft 434 kts 349°
2026-04-25 20:36 -30.73396 -71.14809 35526 ft 432 kts 348°
2026-04-25 20:36 -30.70353 -71.14629 35704 ft 432 kts 348°
2026-04-25 20:36 -30.67397 -71.14456 35921 ft 431 kts 348°
2026-04-25 20:37 -30.61410 -71.14102 36036 ft 430 kts 348°
2026-04-25 20:37 -30.55425 -71.13739 36038 ft 430 kts 348°
2026-04-25 20:38 -30.49442 -71.13378 36038 ft 430 kts 348°
2026-04-25 20:38 -30.43463 -71.13030 36036 ft 430 kts 347°
2026-04-25 20:39 -30.37487 -71.12684 36032 ft 431 kts 347°
2026-04-25 20:39 -30.32507 -71.12397 36041 ft 431 kts 348°
2026-04-25 20:40 -30.25501 -71.11991 36043 ft 431 kts 348°
2026-04-25 20:40 -30.19520 -71.11522 36051 ft 436 kts 350°
2026-04-25 20:41 -30.13465 -71.10823 36048 ft 438 kts 351°
2026-04-25 20:41 -30.07394 -71.10091 36056 ft 439 kts 350°
2026-04-25 20:42 -30.01323 -71.09412 36055 ft 437 kts 350°
2026-04-25 20:42 -29.95277 -71.08773 36057 ft 436 kts 350°
2026-04-25 20:43 -29.89252 -71.08146 36054 ft 436 kts 349°
2026-04-25 20:43 -29.83203 -71.07502 36051 ft 436 kts 350°
2026-04-25 20:44 -29.77152 -71.06852 36054 ft 436 kts 350°
2026-04-25 20:44 -29.71097 -71.06204 36058 ft 437 kts 350°
2026-04-25 20:45 -29.65041 -71.05556 36049 ft 437 kts 350°
2026-04-25 20:45 -29.58988 -71.04914 36046 ft 436 kts 350°
2026-04-25 20:46 -29.52948 -71.04266 36050 ft 436 kts 350°
2026-04-25 20:46 -29.46914 -71.03618 36045 ft 435 kts 350°
2026-04-25 20:47 -29.40869 -71.02872 36056 ft 439 kts 352°
2026-04-25 20:47 -29.34833 -71.01906 36050 ft 441 kts 353°
2026-04-25 20:48 -29.28755 -71.00887 35998 ft 441 kts 353°
2026-04-25 20:48 -29.22708 -71.00046 36034 ft 434 kts 350°
2026-04-25 20:49 -29.16709 -70.99525 36044 ft 431 kts 348°
2026-04-25 20:49 -29.10716 -70.99051 36038 ft 432 kts 349°
2026-04-25 20:50 -29.04741 -70.98518 36040 ft 431 kts 349°
2026-04-25 20:50 -28.98751 -70.97957 36022 ft 432 kts 350°
2026-04-25 20:51 -28.92721 -70.97381 36023 ft 431 kts 350°
2026-04-25 20:51 -28.86736 -70.96813 36027 ft 431 kts 350°
2026-04-25 20:52 -28.81768 -70.96350 36027 ft 431 kts 350°
2026-04-25 20:52 -28.74774 -70.95701 36026 ft 431 kts 350°
2026-04-25 20:53 -28.68828 -70.95140 36027 ft 431 kts 350°
2026-04-25 20:53 -28.62835 -70.94572 36029 ft 432 kts 350°
2026-04-25 20:54 -28.56848 -70.94014 36031 ft 431 kts 350°
2026-04-25 20:54 -28.50874 -70.93465 36032 ft 430 kts 350°
2026-04-25 20:55 -28.44895 -70.92887 36012 ft 432 kts 351°
2026-04-25 20:55 -28.38905 -70.92253 36043 ft 432 kts 351°
2026-04-25 20:56 -28.32906 -70.91617 36050 ft 432 kts 351°
2026-04-25 20:56 -28.26961 -70.90998 36050 ft 432 kts 351°
2026-04-25 20:57 -28.20979 -70.90371 36054 ft 432 kts 351°
2026-04-25 20:57 -28.14992 -70.89733 36028 ft 432 kts 352°
2026-04-25 20:58 -28.08993 -70.89088 36053 ft 432 kts 352°
2026-04-25 20:58 -28.03004 -70.88448 36053 ft 432 kts 352°
2026-04-25 20:59 -27.97010 -70.87813 36057 ft 433 kts 352°
2026-04-25 20:59 -27.91006 -70.87174 36057 ft 434 kts 352°
2026-04-25 21:00 -27.87023 -70.86746 36031 ft 432 kts 352°
2026-04-25 21:01 -27.76049 -70.85588 36065 ft 432 kts 352°
2026-04-25 21:01 -27.70062 -70.84968 36065 ft 432 kts 352°
2026-04-25 21:02 -27.64078 -70.84336 36065 ft 432 kts 352°
2026-04-25 21:02 -27.58097 -70.83699 36037 ft 432 kts 353°
2026-04-25 21:03 -27.52112 -70.83064 36069 ft 432 kts 353°
2026-04-25 21:03 -27.46129 -70.82437 36067 ft 431 kts 353°
2026-04-25 21:04 -27.40186 -70.81811 36067 ft 431 kts 353°
2026-04-25 21:04 -27.34205 -70.81181 36067 ft 432 kts 353°
2026-04-25 21:05 -27.28223 -70.80553 36066 ft 431 kts 353°
2026-04-25 21:05 -27.22236 -70.79933 36066 ft 432 kts 353°
2026-04-25 21:06 -27.16285 -70.79307 36065 ft 432 kts 353°
2026-04-25 21:06 -27.10301 -70.78684 36063 ft 432 kts 353°
2026-04-25 21:07 -27.04320 -70.78061 36071 ft 432 kts 353°
2026-04-25 21:07 -26.98333 -70.77431 36065 ft 432 kts 353°
2026-04-25 21:08 -26.92351 -70.76804 36074 ft 432 kts 353°
2026-04-25 21:08 -26.86368 -70.76188 36066 ft 431 kts 353°
2026-04-25 21:09 -26.77388 -70.75255 36065 ft 432 kts 353°
2026-04-25 21:09 -26.71405 -70.74623 36043 ft 432 kts 354°
2026-04-25 21:10 -26.65456 -70.73981 36061 ft 434 kts 355°
2026-04-25 21:10 -26.59447 -70.73021 36059 ft 438 kts 358°
2026-04-25 21:11 -26.53433 -70.71902 36058 ft 438 kts 358°
2026-04-25 21:11 -26.47415 -70.70817 36060 ft 437 kts 358°
2026-04-25 21:12 -26.41403 -70.69903 36044 ft 432 kts 354°
2026-04-25 21:12 -26.37405 -70.69545 36062 ft 430 kts 353°
2026-04-25 21:13 -26.29462 -70.69011 36059 ft 430 kts 353°
2026-04-25 21:13 -26.23522 -70.68537 36064 ft 431 kts 354°
2026-04-25 21:14 -26.17545 -70.68004 36059 ft 431 kts 354°
2026-04-25 21:14 -26.11565 -70.67462 36055 ft 431 kts 354°
2026-04-25 21:15 -26.05577 -70.66934 36060 ft 432 kts 354°
2026-04-25 21:15 -25.99581 -70.66412 36060 ft 432 kts 354°
2026-04-25 21:16 -25.94603 -70.65976 36057 ft 432 kts 354°
2026-04-25 21:16 -25.88611 -70.65447 36057 ft 432 kts 354°
2026-04-25 21:17 -25.81651 -70.64841 36053 ft 432 kts 355°
2026-04-25 21:17 -25.76625 -70.64402 36054 ft 432 kts 355°
2026-04-25 21:18 -25.70622 -70.63877 36054 ft 432 kts 355°
2026-04-25 21:18 -25.64664 -70.63357 36055 ft 432 kts 355°
2026-04-25 21:19 -25.58626 -70.62823 36052 ft 432 kts 355°
2026-04-25 21:19 -25.52672 -70.62305 36041 ft 432 kts 355°
2026-04-25 21:20 -25.47651 -70.61879 36052 ft 432 kts 355°
2026-04-25 21:20 -25.40677 -70.61275 36051 ft 432 kts 355°
2026-04-25 21:21 -25.34678 -70.60754 36046 ft 432 kts 355°
2026-04-25 21:21 -25.28685 -70.60234 36046 ft 432 kts 355°
2026-04-25 21:22 -25.22692 -70.59716 36039 ft 432 kts 356°
2026-04-25 21:22 -25.16691 -70.59205 36040 ft 433 kts 356°
2026-04-25 21:23 -25.10722 -70.58687 36041 ft 433 kts 356°
2026-04-25 21:23 -25.04714 -70.58162 36041 ft 433 kts 356°
2026-04-25 21:24 -24.98712 -70.57643 36040 ft 433 kts 356°
2026-04-25 21:24 -24.92710 -70.57140 36030 ft 432 kts 356°
2026-04-25 21:25 -24.86722 -70.56623 36036 ft 431 kts 356°
2026-04-25 21:25 -24.80741 -70.56111 36030 ft 431 kts 356°
2026-04-25 21:26 -24.74782 -70.55898 36030 ft 426 kts 352°
2026-04-25 21:26 -24.68873 -70.56028 36026 ft 424 kts 351°
2026-04-25 21:27 -24.62961 -70.56169 36020 ft 425 kts 352°
2026-04-25 21:27 -24.57044 -70.56225 36021 ft 425 kts 353°
2026-04-25 21:28 -24.51121 -70.56239 36020 ft 425 kts 353°
2026-04-25 21:28 -24.45203 -70.56268 36015 ft 425 kts 352°
2026-04-25 21:29 -24.39288 -70.56313 36019 ft 425 kts 352°
2026-04-25 21:29 -24.33371 -70.56351 36010 ft 425 kts 353°
2026-04-25 21:30 -24.27453 -70.56386 36016 ft 425 kts 353°
2026-04-25 21:30 -24.22540 -70.56409 36016 ft 425 kts 353°
2026-04-25 21:31 -24.15630 -70.56455 36013 ft 425 kts 353°
2026-04-25 21:31 -24.09718 -70.56497 36013 ft 425 kts 353°
2026-04-25 21:32 -24.03808 -70.56534 36013 ft 425 kts 353°
2026-04-25 21:32 -23.97895 -70.56567 36013 ft 425 kts 353°
2026-04-25 21:33 -23.91978 -70.56601 36016 ft 425 kts 353°
2026-04-25 21:33 -23.86091 -70.56637 36016 ft 425 kts 353°
2026-04-25 21:34 -23.80178 -70.56668 36010 ft 425 kts 353°
2026-04-25 21:34 -23.74268 -70.56682 35994 ft 425 kts 354°
2026-04-25 21:35 -23.68292 -70.56650 36008 ft 426 kts 354°
2026-04-25 21:35 -23.62389 -70.56604 36004 ft 427 kts 354°
2026-04-25 21:36 -23.56451 -70.56566 36003 ft 427 kts 354°
2026-04-25 21:36 -23.50507 -70.56538 36008 ft 427 kts 353°
2026-04-25 21:37 -23.45565 -70.56523 36002 ft 427 kts 354°
2026-04-25 21:37 -23.38607 -70.56498 35999 ft 428 kts 354°
2026-04-25 21:38 -23.32642 -70.56471 36008 ft 428 kts 354°
2026-04-25 21:38 -23.26722 -70.56438 35997 ft 428 kts 354°
2026-04-25 21:39 -23.20760 -70.56416 36012 ft 428 kts 354°
2026-04-25 21:39 -23.14802 -70.56395 36004 ft 428 kts 354°
2026-04-25 21:40 -23.08828 -70.56372 36003 ft 428 kts 354°
2026-04-25 21:40 -23.02864 -70.56346 36001 ft 428 kts 354°
2026-04-25 21:41 -22.96895 -70.56321 36004 ft 429 kts 354°
2026-04-25 21:41 -22.90964 -70.56300 36005 ft 429 kts 354°
2026-04-25 21:42 -22.84992 -70.56253 36004 ft 429 kts 355°
2026-04-25 21:42 -22.79015 -70.56127 36007 ft 430 kts 356°
2026-04-25 21:43 -22.73034 -70.55988 36007 ft 430 kts 356°
2026-04-25 21:43 -22.67056 -70.55871 36007 ft 429 kts 356°
2026-04-25 21:44 -22.61080 -70.55757 36007 ft 429 kts 356°
2026-04-25 21:45 -22.52122 -70.55590 36006 ft 429 kts 356°
2026-04-25 21:45 -22.46192 -70.55473 36011 ft 429 kts 356°
2026-04-25 21:46 -22.40214 -70.55350 36007 ft 429 kts 356°
2026-04-25 21:46 -22.34233 -70.55239 36008 ft 429 kts 356°
2026-04-25 21:47 -22.28256 -70.55133 36011 ft 429 kts 356°
2026-04-25 21:47 -22.22281 -70.55021 35997 ft 429 kts 356°
2026-04-25 21:48 -22.16312 -70.54907 36008 ft 429 kts 357°
2026-04-25 21:48 -22.10340 -70.54791 36010 ft 429 kts 356°
2026-04-25 21:49 -22.04408 -70.54673 36010 ft 429 kts 357°
2026-04-25 21:49 -21.98431 -70.54559 36013 ft 429 kts 356°
2026-04-25 21:50 -21.92466 -70.54449 36015 ft 429 kts 356°
2026-04-25 21:50 -21.86507 -70.54382 36014 ft 428 kts 355°
2026-04-25 21:51 -21.80540 -70.54520 36006 ft 427 kts 354°
2026-04-25 21:51 -21.74594 -70.54725 36007 ft 428 kts 354°
2026-04-25 21:52 -21.68640 -70.54894 36012 ft 428 kts 355°
2026-04-25 21:52 -21.62685 -70.55032 36013 ft 428 kts 355°
2026-04-25 21:53 -21.56729 -70.55164 36013 ft 428 kts 355°
2026-04-25 21:53 -21.50774 -70.55309 36018 ft 428 kts 355°
2026-04-25 21:54 -21.44819 -70.55448 36016 ft 428 kts 355°
2026-04-25 21:54 -21.38900 -70.55586 36015 ft 428 kts 355°
2026-04-25 21:55 -21.32950 -70.55725 36013 ft 428 kts 355°
2026-04-25 21:55 -21.26956 -70.55866 36010 ft 428 kts 355°
2026-04-25 21:56 -21.21009 -70.56009 36016 ft 427 kts 355°
2026-04-25 21:56 -21.15067 -70.56154 36013 ft 427 kts 355°
2026-04-25 21:57 -21.09163 -70.56289 36014 ft 427 kts 355°
2026-04-25 21:57 -21.03219 -70.56431 36010 ft 427 kts 355°
2026-04-25 21:58 -20.97280 -70.56572 36014 ft 427 kts 355°
2026-04-25 21:58 -20.91340 -70.56711 36013 ft 427 kts 355°
2026-04-25 21:59 -20.86402 -70.56823 36013 ft 427 kts 355°
2026-04-25 21:59 -20.80463 -70.56962 36012 ft 427 kts 355°
2026-04-25 22:00 -20.70586 -70.57197 36019 ft 427 kts 355°
2026-04-25 22:00 -20.68582 -70.57246 35888 ft 427 kts 355°
2026-04-25 22:00 -20.65602 -70.57317 35638 ft 429 kts 356°
2026-04-25 22:01 -20.62608 -70.57387 35398 ft 430 kts 356°
2026-04-25 22:01 -20.59645 -70.57455 35170 ft 432 kts 356°
2026-04-25 22:01 -20.56634 -70.57523 34945 ft 433 kts 356°
2026-04-25 22:01 -20.54603 -70.57569 34784 ft 434 kts 356°
2026-04-25 22:02 -20.50601 -70.57659 34478 ft 435 kts 356°
2026-04-25 22:02 -20.47572 -70.57730 34252 ft 436 kts 356°
2026-04-25 22:02 -20.44532 -70.57803 34024 ft 437 kts 356°
2026-04-25 22:02 -20.41489 -70.57876 33767 ft 438 kts 356°
2026-04-25 22:03 -20.38439 -70.57949 33500 ft 439 kts 356°
2026-04-25 22:03 -20.35384 -70.58022 33263 ft 439 kts 356°
2026-04-25 22:03 -20.32318 -70.58093 32999 ft 441 kts 356°
2026-04-25 22:03 -20.29242 -70.58165 32741 ft 442 kts 356°
2026-04-25 22:04 -20.26189 -70.58235 32499 ft 443 kts 356°
2026-04-25 22:04 -20.23101 -70.58308 32252 ft 444 kts 356°
2026-04-25 22:04 -20.19973 -70.58384 32006 ft 444 kts 356°
2026-04-25 22:04 -20.16891 -70.58457 31764 ft 443 kts 357°
2026-04-25 22:05 -20.13817 -70.58527 31527 ft 441 kts 357°
2026-04-25 22:05 -20.10789 -70.58596 31293 ft 440 kts 357°
2026-04-25 22:05 -20.07738 -70.58664 30971 ft 436 kts 357°
2026-04-25 22:05 -20.04710 -70.58732 30427 ft 434 kts 357°
2026-04-25 22:06 -20.01693 -70.58801 29874 ft 433 kts 357°
2026-04-25 22:06 -19.98690 -70.58868 29322 ft 429 kts 357°
2026-04-25 22:06 -19.95719 -70.58934 28794 ft 426 kts 357°
2026-04-25 22:06 -19.92766 -70.59001 28270 ft 422 kts 357°
2026-04-25 22:07 -19.89839 -70.59070 27764 ft 419 kts 357°
2026-04-25 22:07 -19.87914 -70.59116 27425 ft 417 kts 357°
2026-04-25 22:07 -19.84053 -70.59209 26767 ft 412 kts 356°
2026-04-25 22:07 -19.81199 -70.59276 26284 ft 409 kts 357°
2026-04-25 22:08 -19.78368 -70.59341 25821 ft 405 kts 357°
2026-04-25 22:08 -19.75553 -70.59406 25357 ft 402 kts 358°
2026-04-25 22:08 -19.72770 -70.59471 24909 ft 398 kts 358°
2026-04-25 22:08 -19.70008 -70.59537 24463 ft 395 kts 357°
2026-04-25 22:09 -19.67264 -70.59603 24010 ft 393 kts 357°
2026-04-25 22:09 -19.64538 -70.59669 23559 ft 390 kts 358°
2026-04-25 22:09 -19.61829 -70.59732 23058 ft 387 kts 358°
2026-04-25 22:09 -19.59145 -70.59792 22601 ft 383 kts 357°
2026-04-25 22:10 -19.56531 -70.59848 22162 ft 380 kts 358°
2026-04-25 22:10 -19.53895 -70.59907 21692 ft 377 kts 358°
2026-04-25 22:10 -19.51282 -70.59968 21250 ft 373 kts 357°
2026-04-25 22:10 -19.48694 -70.60030 20792 ft 371 kts 358°
2026-04-25 22:11 -19.46119 -70.60090 20343 ft 369 kts 357°
2026-04-25 22:11 -19.43560 -70.60005 19886 ft 368 kts
2026-04-25 22:11 -19.41049 -70.59473 19436 ft 367 kts 11°
2026-04-25 22:11 -19.38561 -70.58870 18980 ft 366 kts 10°
2026-04-25 22:12 -19.36082 -70.58276 18532 ft 365 kts 11°
2026-04-25 22:12 -19.33608 -70.57684 18049 ft 363 kts 10°
2026-04-25 22:12 -19.31147 -70.57096 17595 ft 361 kts 12°
2026-04-25 22:12 -19.29528 -70.56709 17303 ft 359 kts 12°
2026-04-25 22:13 -19.26287 -70.55931 16726 ft 355 kts 11°
2026-04-25 22:13 -19.23891 -70.55356 16297 ft 352 kts 11°
2026-04-25 22:13 -19.21508 -70.54785 15879 ft 350 kts 11°
2026-04-25 22:13 -19.19140 -70.54219 15459 ft 348 kts 11°
2026-04-25 22:14 -19.16784 -70.53656 15040 ft 346 kts 11°
2026-04-25 22:14 -19.14476 -70.53103 14627 ft 345 kts 11°
2026-04-25 22:14 -19.12101 -70.52536 14201 ft 344 kts 12°
2026-04-25 22:14 -19.09760 -70.52011 13103 ft 354 kts
2026-04-25 22:15 -19.07306 -70.51572 12576 ft 359 kts 10°
2026-04-25 22:15 -19.04893 -70.51008 12317 ft 350 kts 13°
2026-04-25 22:15 -19.02553 -70.50397 12073 ft 342 kts 14°
2026-04-25 22:16 -18.98022 -70.49213 11562 ft 329 kts 12°
2026-04-25 22:16 -18.95789 -70.48718 11171 ft 327 kts 10°
2026-04-25 22:16 -18.93557 -70.48280 10755 ft 326 kts 10°
2026-04-25 22:16 -18.91322 -70.47868 10337 ft 325 kts
2026-04-25 22:17 -18.89114 -70.47467 10154 ft 316 kts
2026-04-25 22:17 -18.86982 -70.47075 9980 ft 307 kts 10°
2026-04-25 22:17 -18.84900 -70.46689 9756 ft 303 kts 10°
2026-04-25 22:17 -18.82830 -70.46302 9356 ft 302 kts 10°
2026-04-25 22:18 -18.80765 -70.45909 8961 ft 301 kts 11°
2026-04-25 22:18 -18.78682 -70.45507 8558 ft 299 kts 11°
2026-04-25 22:18 -18.76665 -70.45117 8170 ft 298 kts 11°
2026-04-25 22:18 -18.74628 -70.44724 7781 ft 297 kts 10°
2026-04-25 22:19 -18.72594 -70.44333 7380 ft 297 kts 11°
2026-04-25 22:19 -18.70561 -70.43944 6986 ft 296 kts 11°
2026-04-25 22:19 -18.68536 -70.43558 6592 ft 295 kts 10°
2026-04-25 22:19 -18.66543 -70.43179 6191 ft 283 kts 11°
2026-04-25 22:20 -18.64661 -70.42822 5824 ft 266 kts 11°
2026-04-25 22:20 -18.62909 -70.42489 5498 ft 247 kts 11°
2026-04-25 22:20 -18.61277 -70.42176 5185 ft 228 kts 11°
2026-04-25 22:20 -18.59780 -70.41888 4898 ft 211 kts 10°
2026-04-25 22:21 -18.58370 -70.41617 4594 ft 201 kts 10°
2026-04-25 22:21 -18.57029 -70.41361 4337 ft 192 kts 10°
2026-04-25 22:21 -18.55724 -70.41113 4086 ft 190 kts 10°
2026-04-25 22:21 -18.54435 -70.40869 3862 ft 187 kts 10°
2026-04-25 22:22 -18.53155 -70.40599 3601 ft 187 kts 16°
2026-04-25 22:22 -18.51939 -70.40144 3356 ft 185 kts 18°
2026-04-25 22:22 -18.50737 -70.39700 3108 ft 183 kts 18°
2026-04-25 22:22 -18.49534 -70.39258 2868 ft 181 kts 19°
2026-04-25 22:23 -18.48359 -70.38828 2620 ft 178 kts 19°
2026-04-25 22:23 -18.47198 -70.38402 2379 ft 170 kts 18°
2026-04-25 22:23 -18.46144 -70.38016 2152 ft 152 kts 18°
2026-04-25 22:23 -18.45183 -70.37662 1946 ft 141 kts 18°
2026-04-25 22:24 -18.44272 -70.37327 1798 ft 137 kts 18°
2026-04-25 22:24 -18.43351 -70.37005 1540 ft 144 kts 17°
2026-04-25 22:24 -18.42418 -70.36676 1365 ft 143 kts 18°
2026-04-25 22:24 -18.41464 -70.36332 1218 ft 148 kts 19°
2026-04-25 22:25 -18.40498 -70.35972 1016 ft 148 kts 19°
2026-04-25 22:25 -18.39525 -70.35611 829 ft 148 kts 20°
2026-04-25 22:25 -18.38555 -70.35244 644 ft 147 kts 21°
2026-04-25 22:25 -18.37588 -70.34877 433 ft 147 kts 19°
2026-04-25 22:26 -18.36621 -70.34524 260 ft 147 kts 19°
2026-04-25 22:26 -18.35677 -70.34177 170 ft 132 kts 19°
2026-04-25 22:26 -18.35008 -70.33933 184 ft 75 kts 19°
2026-04-25 22:26 -18.34672 -70.33809 183 ft 33 kts 19°
2026-04-25 22:27 -18.34462 -70.33733 193 ft 30 kts 19°
2026-04-25 22:27 -18.34272 -70.33663 205 ft 28 kts 19°
2026-04-25 22:27 -18.34097 -70.33599 197 ft 24 kts 19°
2026-04-25 22:27 -18.33971 -70.33549 200 ft 13 kts 28°
2026-04-25 22:28 -18.33960 -70.33473 210 ft 11 kts 112°
2026-04-25 22:28 -18.34011 -70.33414 202 ft 11 kts 152°
2026-04-25 22:28 -18.34090 -70.33414 203 ft 12 kts 198°
2026-04-25 22:28 -18.34174 -70.33444 198 ft 14 kts 199°
2026-04-25 22:29 -18.34273 -70.33481 192 ft 17 kts 199°
2026-04-25 22:29 -18.34394 -70.33525 187 ft 20 kts 199°
2026-04-25 22:29 -18.34525 -70.33574 186 ft 20 kts 199°
2026-04-25 22:30 -18.34789 -70.33671 181 ft 7 kts 199°
2026-04-25 22:30 -18.34832 -70.33686 182 ft 6 kts 198°
2026-04-25 22:30 -18.34867 -70.33673 181 ft 6 kts 127°
2026-04-25 22:30 -18.34873 -70.33661 181 ft 5 kts 112°
2026-04-25 22:31 -18.34880 -70.33641 181 ft 1 kts 109°
2026-04-25 22:31 -18.34882 -70.33633 181 ft 1 kts 109°
2026-04-25 22:31 -18.34884 -70.33627 181 ft 3 kts 109°
2026-04-25 22:31 -18.34885 -70.33625 181 ft 0 kts 109°